Flag for United Kingdom Weather past 2 weeks in Bournemouth, England, United Kingdom

52 °F

Sprinkles. Broken clouds.

Feels Like: 47 °F
Forecast: 42 / 54 °F
Wind: 16 mph from West

Location: Bournemouth Airport

Current Time: Nov 27, 2015 at 2:20:20 PM

Latest Report: Nov 27, 2015 at 1:50 PM

Visibility: N/A

Pressure: 29.80 "Hg

Humidity: 94%

Dew point: 50 °F

Location of BournemouthLocation

Historic Weather in Bournemouth — Graph


Bournemouth temperature yesterday

Maximum temperature yesterday: 54 °F (at 11:20 AM)
Minimum temperature yesterday: 46 °F (at 5:20 AM)
Average temperature yesterday: 50 °F

Past Weeks' High & Low Weather Summary

High61 °F (Nov 17, 1:50 PM)100% (Nov 16, 11:50 PM)30.36 "Hg (Nov 16, 11:50 PM)
Low27 °F (Nov 22, 5:50 AM)42% (Nov 21, 1:20 PM)29.59 "Hg (Nov 17, 1:20 PM)
Average50 °F84%29.98 "Hg
* Reported Nov 12 1:20 PM — Nov 27 1:20 PM, Bournemouth, Weather by CustomWeather, © 2015

Note: Actual official high and low records may vary slightly from our data, if they occured in-between our weather recording intervals... More about our weather records


Bournemouth weather history for previous 24 hours

Time TempWeatherWind HumidityBarometerVisibility
1:20 PM
Fri, Nov 27
52 °FSprinkles. Broken clouds.12 mph94%29.80 "Hg4 mi
12:50 PM54 °FSprinkles. Broken clouds.13 mph88%29.83 "Hg4 mi
12:20 PM54 °FScattered clouds.12 mph88%29.83 "HgN/A
11:50 AM54 °FSprinkles. Scattered clouds.14 mph88%29.86 "HgN/A
11:20 AM55 °FScattered clouds.13 mph88%29.89 "HgN/A
10:50 AM54 °FBroken clouds.14 mph94%29.89 "HgN/A
10:20 AM54 °FLight rain. Fog.16 mph94%29.92 "Hg3 mi
9:50 AM54 °FLight rain. Fog.14 mph100%29.92 "Hg2 mi
9:20 AM54 °FLight rain. Partly sunny.9 mph100%29.92 "Hg4 mi
8:50 AM54 °FFog.8 mph94%29.92 "Hg3 mi
8:20 AM54 °FPartly sunny.12 mph100%29.95 "HgN/A
7:50 AM54 °FPartly sunny.10 mph100%29.95 "HgN/A
6:20 AM54 °FDrizzle. Fog.8 mph100%29.95 "Hg1 mi
5:50 AM54 °FDrizzle. Fog.8 mph94%29.98 "Hg3 mi
2:20 AM52 °FPassing clouds.5 mph94%30.07 "HgN/A
1:50 AM52 °FPartly cloudy.3 mph94%30.07 "HgN/A
1:20 AM50 °FPassing clouds.3 mph94%30.09 "HgN/A
10:50 PM
Thu, Nov 26
52 °FOvercast.2 mph88%30.12 "HgN/A
10:20 PM52 °FOvercast.2 mph88%30.12 "HgN/A
9:50 PM50 °FPassing clouds.3 mph94%30.15 "HgN/A
9:20 PM50 °FPassing clouds.3 mph94%30.15 "HgN/A
8:50 PM50 °FPassing clouds.3 mph94%30.15 "HgN/A
8:20 PM50 °FPassing clouds.5 mph94%30.15 "HgN/A
7:50 PM50 °FPassing clouds.2 mph94%30.15 "HgN/A
7:20 PM50 °FPassing clouds.5 mph94%30.15 "HgN/A
6:50 PM50 °FPassing clouds.5 mph94%30.15 "HgN/A
6:20 PM50 °FPassing clouds.6 mph94%30.15 "HgN/A
5:50 PM50 °FPassing clouds.5 mph94%30.15 "HgN/A
5:20 PM50 °FPassing clouds.3 mph94%30.15 "HgN/A
4:50 PM52 °FPassing clouds.6 mph88%30.15 "HgN/A
4:20 PM52 °FPassing clouds.5 mph88%30.15 "HgN/A
3:50 PM52 °FPartly sunny.3 mph82%30.15 "HgN/A
3:20 PM52 °FPartly sunny.6 mph88%30.15 "HgN/A
2:50 PM52 °FPartly sunny.7 mph82%30.15 "HgN/A
2:20 PM54 °FPartly sunny.8 mph82%30.15 "HgN/A
Weather by CustomWeather, © 2015

See weather overviewHow to use our weather pages